Home   Weather   Prague   Past weeks

Flag for Czech Republic Past Weather in Prague, Czech Republic — Yesterday and Last 2 Weeks

Now
39 °F

Clear.


Feels Like: 31 °F
Forecast: 36 / 44 °F
Wind: 14 mph from Southwest

Location: Prague Ruzyne Airport

Current Time: Dec 10, 2016 at 8:00:39 am

Latest Report: Dec 10, 2016 at 7:00 am


Visibility: 10 mi

Pressure: 30.24 "Hg

Humidity: 93%

Dew Point: 37 °F

Location of PragueLocation

Past Weather in Prague — Graph

°F

Prague Temperature Yesterday

Maximum temperature yesterday: 45 °F (at 11:30 am)
Minimum temperature yesterday: 37 °F (at 3:00 am)
Average temperature yesterday: 41 °F

High & Low Weather Summary for the Past Weeks

 TemperatureHumidityPressure
High45 °F (Dec 8, 1:00 pm)100% (Nov 25, 6:00 am)30.57 "Hg (Nov 25, 6:00 am)
Low21 °F (Dec 4, 2:00 am)42% (Dec 8, 1:30 pm)29.80 "Hg (Dec 2, 3:30 am)
Average32 °F82%30.26 "Hg
* Reported Nov 25 6:00 am — Dec 10 6:30 am, Prague, Weather by CustomWeather, © 2016

Note: Actual official high and low records may vary slightly from our data, if they occured in-between our weather recording intervals... More about our weather records

Advertising

Prague Weather History for the Previous 24 Hours

Scroll right to see more
 ConditionsComfort  
Time TempWeatherWind HumidityBarometerVisibility
6:30 am
Sat, Dec 10
39 °FClear.14 mph93%30.24 "Hg10 mi
6:00 am39 °FClear.14 mph93%30.24 "Hg10 mi
5:30 am39 °FClear.13 mph93%30.24 "Hg10 mi
5:00 am41 °FClear.15 mph93%30.24 "Hg10 mi
4:30 am41 °FPassing clouds.16 mph93%30.24 "HgN/A
4:00 am41 °FPassing clouds.15 mph93%30.24 "HgN/A
3:30 am41 °FPassing clouds.16 mph93%30.27 "HgN/A
3:00 am41 °FPassing clouds.18 mph93%30.27 "HgN/A
2:30 am39 °FPassing clouds.16 mph93%30.27 "HgN/A
2:00 am39 °FPassing clouds.17 mph93%30.27 "HgN/A
1:30 am39 °FPassing clouds.18 mph93%30.27 "HgN/A
1:00 am41 °FPassing clouds.17 mph93%30.30 "HgN/A
12:30 am39 °FPassing clouds.17 mph93%30.30 "HgN/A
12:00 am37 °FClear.16 mph93%30.30 "Hg10 mi
11:30 pm
Fri, Dec 9
39 °FClear.17 mph93%30.30 "Hg10 mi
11:00 pm39 °FClear.16 mph87%30.33 "Hg10 mi
10:30 pm39 °FClear.15 mph93%30.33 "Hg10 mi
10:00 pm37 °FClear.13 mph93%30.33 "Hg10 mi
9:30 pm37 °FPassing clouds.7 mph93%30.33 "HgN/A
9:00 pm39 °FPassing clouds.8 mph87%30.36 "HgN/A
8:30 pm39 °FPassing clouds.15 mph87%30.36 "HgN/A
8:00 pm41 °FPassing clouds.20 mph81%30.36 "HgN/A
7:30 pm41 °FPassing clouds.15 mph87%30.36 "HgN/A
7:00 pm41 °FPassing clouds.16 mph87%30.33 "HgN/A
6:30 pm41 °FPassing clouds.16 mph87%30.33 "HgN/A
6:00 pm41 °FPassing clouds.16 mph87%30.33 "HgN/A
5:30 pm41 °FPassing clouds.16 mph81%30.33 "HgN/A
5:00 pm41 °FPassing clouds.18 mph81%30.33 "HgN/A
4:30 pm43 °FPassing clouds.18 mph76%30.33 "HgN/A
4:00 pm43 °FMostly cloudy.20 mph76%30.33 "HgN/A
3:30 pm43 °FPartly sunny.21 mph76%30.33 "HgN/A
3:00 pm43 °FPartly sunny.21 mph76%30.33 "HgN/A
2:30 pm45 °FPartly sunny.20 mph76%30.33 "HgN/A
2:00 pm45 °FPartly sunny.20 mph76%30.30 "HgN/A
1:30 pm45 °FPartly sunny.23 mph76%30.30 "HgN/A
1:00 pm45 °FPartly sunny.23 mph76%30.30 "HgN/A
12:30 pm45 °FPartly sunny.26 mph76%30.30 "HgN/A
12:00 pm43 °FPartly sunny.23 mph76%30.33 "HgN/A
11:30 am45 °FPartly sunny.22 mph76%30.30 "HgN/A
11:00 am43 °FBroken clouds.16 mph76%30.33 "HgN/A
10:30 am43 °FPartly sunny.18 mph71%30.33 "HgN/A
10:00 am43 °FPartly sunny.20 mph71%30.33 "HgN/A
9:30 am43 °FPassing clouds.20 mph71%30.30 "HgN/A
9:00 am41 °FPartly sunny.18 mph70%30.30 "HgN/A
8:30 am41 °FPartly sunny.18 mph70%30.30 "HgN/A
8:00 am41 °FBroken clouds.17 mph70%30.30 "HgN/A
Weather by CustomWeather, © 2016

See weather overviewHow to use our weather pages